This demonstration page uses our WeatherBlox Daily Observations layout. Learn more.

Left ArrowRight Arrow

Hourly Observations for May 27, 2017

Temp ( °F °C ) Dew Point ( °F °C ) Humidity (%) Winds ( mph kmh ) Pressure ( in mb ) Visibility ( mi km ) Precip ( " mm )
12:52 am 00:52 Partly Cloudy 74 23.3 70 21.1 88 88 ENE 5 7 29.79 1009 10 16 0.00 0.00
1:52 am 01:52 Clear 72 22.2 70 21.1 94 94 ESE 5 7 29.78 1009 9 14 0.00 0.00
2:52 am 02:52 Mostly Cloudy 72 22.2 70 21.1 94 94 SSE 8 13 29.80 1009 8 13 0.00 0.00
3:52 am 03:52 Clear with Mist and Fog 70 21.1 69 20.6 97 97 SE 5 7 29.77 1008 6 10 0.00 0.00
4:52 am 04:52 Clear with Mist and Fog 69 20.6 68 20 96 96 SE 7 11 29.77 1008 5 8 0.00 0.00
5:52 am 05:52 Clear with Mist and Fog 69 20.6 68 20 96 96 SSE 7 11 29.78 1008 5 8 0.00 0.00
6:52 am 06:52 Sunny with Mist and Fog 69 20.6 68 20 96 96 VRB 6 9 29.79 1009 4 6 0.00 0.00
6:59 am 06:59 Partly Cloudy with Mist and Fog 70 21.1 69 20.6 97 97 SSE 9 15 29.77 1008 4 6 0.00 0.00
7:52 am 07:52 Sunny 72 22.2 69 20.6 91 91 SSE 9 15 29.80 1009 10 16 0.00 0.00
8:52 am 08:52 Partly Cloudy 75 23.9 68 20 79 79 SSE 9 15 29.80 1009 10 16 0.00 0.00
9:02 am 09:02 Mostly Cloudy 75 23.9 69 20.6 82 82 SSE 10 17 29.77 1008 10 16 0.00 0.00
9:12 am 09:12 Partly Cloudy 75 23.9 69 20.6 82 82 SSE 12 19 29.80 1009 10 16 0.00 0.00
9:52 am 09:52 Mostly Cloudy 77 25 71 21.7 82 82 S 9 15 29.83 1010 10 16 0.00 0.00
10:52 am 10:52 Mostly Cloudy 80 26.7 73 22.8 79 79 S 9 15 29.83 1010 10 16 0.00 0.00
10:59 am 10:59 Mostly Sunny 80 26.7 73 22.8 79 79 S 7 11 29.83 1010 10 16 0.00 0.00
11:52 am 11:52 Sunny 83 28.3 74 23.3 74 74 S 14 22 29.80 1009 10 16 0.00 0.00
12:52 pm 12:52 Sunny 83 28.3 72 22.2 70 70 SSE 13 20 29.72 1007 10 16 0.00 0.00
1:23 pm 13:23 Partly Cloudy with Nearby Thunderstorms 81 27.2 72 22.2 74 74 S 10 17 29.74 1007 10 16 0.00 0.00
1:50 pm 13:50 Partly Cloudy 81 27 72 22 74 74 S 10 17 29.68 1005 10 16 0.00 0.00
1:52 pm 13:52 Partly Cloudy 80 26.7 72 22.2 76 76 S 13 20 29.72 1007 10 16 0.00 0.00
2:27 pm 14:27 Mostly Cloudy with Thunderstorms 80 26.7 72 22.2 76 76 SSW 8 13 29.71 1006 10 16 0.00 0.03
2:44 pm 14:44 Cloudy with Strong Thunderstorms 66 18.9 62 16.7 87 87 N 10 17 29.80 1009 3 4 0.03 0.76
2:52 pm 14:52 Cloudy with Strong Thunderstorms 65 18.3 63 17.2 93 93 NW 14 22 29.77 1008 1 1 0.18 4.57
3:04 pm 15:04 Cloudy with Thunderstorms 66 18.9 64 17.8 93 93 S 12 19 29.74 1007 2 3 0.22 5.59
3:11 pm 15:11 Cloudy with Thunderstorms 66 18.9 64 17.8 93 93 VRB 5 7 29.74 1007 4 6 0.26 6.60
3:22 pm 15:22 Mostly Cloudy 67 19.4 64 17.8 91 91 NNE 13 20 29.77 1008 10 16 0.26 6.60
3:52 pm 15:52 Mostly Cloudy 67 19.4 65 18.3 93 93 NNE 6 9 29.76 1008 10 16 0.26 6.60
4:52 pm 16:52 Mostly Sunny 74 23.3 67 19.4 79 79 NE 7 11 29.76 1008 10 16 0.00 0.00
5:31 pm 17:31 Partly Cloudy with Nearby Thunderstorms 73 22.8 67 19.4 81 81 E 10 17 29.71 1006 10 16 0.00 0.00
5:52 pm 17:52 Mostly Cloudy with Strong Thunderstorms 71 21.7 67 19.4 87 87 VRB 3 6 29.75 1007 4 6 0.02 0.51
5:57 pm 17:57 Mostly Cloudy with Strong Thunderstorms 70 21.1 67 19.4 90 90 NE 13 20 29.71 1006 2 3 0.06 1.52
6:03 pm 18:03 Cloudy with Thunderstorms 70 21.1 68 20 93 93 NE 13 20 29.71 1006 3 5 0.10 2.54
6:19 pm 18:19 Cloudy with Strong Thunderstorms 70 21.1 60 15.6 71 71 NW 22 35 29.85 1011 2 3 0.20 5.08
6:34 pm 18:34 Cloudy with Strong Thunderstorms 63 17.2 58 14.4 84 84 WSW 18 30 29.83 1010 1 2 0.62 15.75
6:43 pm 18:43 Cloudy with Strong Thunderstorms 62 16.7 59 15 90 90 SSW 16 26 29.74 1007 2 3 0.86 21.84
6:52 pm 18:52 Cloudy with Strong Thunderstorms 63 17.2 60 15.6 90 90 S 14 22 29.72 1007 4 6 0.97 24.64
6:59 pm 18:59 Windy with Storms Likely 65 18.3 59 15 81 81 SW 24 39 29.77 1008 4 6 0.01 0.25
7:11 pm 19:11 Windy with Storms Likely 67 19.4 60 15.6 79 79 W 22 35 29.77 1008 10 16 0.02 0.51
7:38 pm 19:38 Mostly Cloudy with Nearby Thunderstorms 66 18.9 61 16.1 84 84 NW 10 17 29.74 1007 10 16 0.03 0.76
7:52 pm 19:52 Partly Cloudy with Nearby Thunderstorms 66 18.9 62 16.7 87 87 NNE 10 17 29.76 1008 10 16 0.03 0.76
8:01 pm 20:01 Mostly Cloudy with Thunderstorms 65 18.3 62 16.7 90 90 VRB 3 6 29.80 1009 10 16 0.00 0.00
8:30 pm 20:30 Mostly Cloudy 65 18.3 63 17.2 93 93 ENE 6 9 29.77 1008 10 16 0.02 0.51
8:52 pm 20:52 Mostly Cloudy with Light Rain 66 18.9 63 17.2 90 90 VRB 5 7 29.68 1005 6 10 0.10 2.54
9:52 pm 21:52 Mostly Clear with Thunderstorms 65 18.3 63 17.2 93 93 SSW 8 13 29.76 1008 10 16 0.00 0.03
10:10 pm 22:10 Mostly Clear with Nearby Thunderstorms 65 18.3 62 16.7 90 90 Calm 29.80 1009 10 16 0.00 0.00
10:26 pm 22:26 Mostly Clear 65 18.3 62 16.7 90 90 S 8 13 29.77 1008 10 16 0.00 0.00
10:52 pm 22:52 Clear 65 18.3 63 17.2 93 93 Calm 29.77 1008 10 16 0.00 0.00
11:52 pm 23:52 Clear 64 17.8 63 17.2 96 96 S 8 13 29.79 1009 10 16 0.00 0.00

Powered by AerisWeather